www.pogodaiklimat.ru

Погода и климат >> Архив погоды >> Никарагуа >> Ривас


ПОГОДА в Ривасе

  • Прогноз погоды в Ривасе
  • Монитор погоды в Ривасе

АРХИВ ПОГОДЫ в Ривасе

Время (UTC), дата Ветер
(напр.,м/с)
 
Видим.   Явления Облачность Т
(С)
Тd
(С)
f
(%)
Тe
(С)
Тes
(С)
Комфортность P
(гПа)
Po
(гПа)
Тmin
(С)
Tmax
(С)
R
(мм)
R24
(мм)
S
(см)
21 9.09 штиль 0 15 км 10/6 360 м
[Cb cap As op]
+27.4 +24.5 84 +39 +40 очень
душно
1010.5 1006.2
12 10.09 штиль 0 15 км 10/6 450 м
[Cb cap Cs]
+25.2 +23.3 89 +34 +34 очень
душно
1011.7 1004.4 +24.0 +30.2
15 10.09 ЮВ 2 15 км 10/10 480 м
[]
+28.0 +23.5 77 +38 +38 очень
душно
1013.2 1005.8
18 10.09 штиль 0 15 км 8/5 480 м
[Cb cap Cs]
+30.6 +24.0 68 +42 +55 опасность
перегрева
1011.6 1004.4 +24.0 +30.8
21 10.09 штиль 0 15 км гроза без осадков 6/5 480 м
[Cb cap Cs]
+31.0 +24.0 66 +43 +49 опасность
перегрева
1008.9 1001.6
12 11.09 штиль 0 15 км 6/6 420 м
[Cb cap]
+25.9 +24.4 91 +36 +36 очень
душно
1010.9 1003.6 +24.7 +31.8
15 11.09 В 3 15 км 6/6 420 м
[Cb cap]
+29.1 +23.9 74 +40 +45 очень
душно
1011.3 1004.0
18 11.09 В 5 9000 м осадки на расстоянии 10/10 420 м
[Cb cap]
+28.7 +24.5 78 +41 +41 опасность
перегрева
1009.9 1002.6 +24.7 +29.7
21 11.09 В 2 15 км 6/3 420 м
[Cb cap Ac und]
+29.2 +24.2 74 +41 +45 опасность
перегрева
1007.6 1000.3
12 12.09 штиль 0 15 км 5/1 420 м
[Cb cap Cs]
+25.7 +23.9 90 +35 +36 очень
душно
1008.9 1001.6 +25.2 +31.1
15 12.09 С 3 15 км 6/3 480 м
[Cu med, cong Cs]
+29.5 +24.2 73 +41 +48 опасность
перегрева
1010.3 1003.1
18 12.09 СВ 3 15 км 8/4 450 м
[Cb calv Cs]
+32.1 +24.9 66 +46 +55 опасность
перегрева
1009.0 1001.8 +25.2 +31.3
21 12.09 В 2 15 км 9/6 450 м
[Cb cap Cs]
+29.5 +24.9 76 +42 +45 опасность
перегрева
1007.1 999.8
12 13.09 штиль 0 15 км 6/5 420 м
[Cb cap Cs]
+25.7 +23.9 90 +35 +35 очень
душно
1009.2 1001.9 +25.5 +31.7
15 13.09 В 2 15 км 5/5 420 м
[Cb cap]
+29.1 +23.9 74 +40 +47 очень
душно
1010.3 1003.0
18 13.09 В 2 15 км 10/5 450 м
[Cb cap Cs]
+30.2 +24.8 73 +43 +52 опасность
перегрева
1009.6 1002.4 +25.5 +31.0
21 13.09 ЮВ 2 15 км 10/1 450 м
[Cb cap Ac cuf Cs]
+30.9 +25.2 72 +45 +49 опасность
перегрева
1007.9 1000.7
12 14.09 штиль 0 15 км 10/10 450 м
[Cb cap]
+26.2 +23.5 85 +36 +36 очень
душно
1009.1 1001.8 +25.0 +32.0
15 14.09 С 2 15 км 9/5 450 м
[Cb cap Ac cuf Cs]
+30.2 +24.0 69 +42 +45 опасность
перегрева
1011.1 1003.9
18 14.09 С 2 15 км 10/8 450 м
[Cb cap Ac cuf Cs]
+29.8 +24.0 71 +41 +43 опасность
перегрева
1010.3 1003.0 +25.0 +30.4
21 14.09 штиль 0 15 км гроза без осадков 10/5 450 м
[Cb cap Ac As Cs]
+29.2 +24.0 74 +41 +44 опасность
перегрева
1008.4 1001.1
12 15.09 штиль 0 15 км 10/3 450 м
[Cb cap As op Cs]
+26.2 +24.0 88 +36 +36 очень
душно
1009.6 1002.0 +25.4 +31.4 0.9
15 15.09 штиль 0 6000 м слаб. дождь 10/10 450 м
[Cb cap]
+26.0 +24.4 91 +36 +36 очень
душно
1012.5 1005.1
18 15.09 штиль 0 15 км {дождь} 10/10 450 м
[Cb cap]
+29.8 +24.9 75 +43 +43 опасность
перегрева
1010.3 1003.0 +25.4 +30.6 1
12 16.09 штиль 0 2000 м дымка 10/4 360 м
[Cb cap As op]
+23.2 +22.6 96 +32 +32 очень
душно
1011.6 1004.2 +23.0 +31.2 1
15 16.09 штиль 0 15 км 9/9 360 м
[Cb cap]
+27.5 +24.5 84 +39 +41 очень
душно
1013.3 1005.9
18 16.09 штиль 0 15 км 8/5 420 м
[Cb cap Ac lent]
+29.3 +23.9 73 +41 +48 опасность
перегрева
1011.7 1004.4 +23.0 +29.9

 

Местоположение метеостанции Ривас (Никарагуа): широта 11.42 долгота -85.83 высота над уровнем моря 70 м.

В архиве по умолчанию представлена погода в Ривасе за последнюю неделю. Архивные данные за месяц целиком и за предыдущие месяцы, начиная с января 2011 года, Вы можете получить, выбрав интересующий диапазон дат из раскрывающегося списка и нажав кнопку "Ввод!".


*Определитесь, кто Вы:
робот инопланетянин человек

Внимание! Время в таблицах - всемирное. Для получения местного времени необходимо прибавить поправку, которая равна -6 ч.

Смотрите также архив погоды в соседних городах и на ближайших метеорологических станциях:

Погода в Манагуа (Никарагуа) (89 км)
Погода в Хуигальпе (Никарагуа) (91 км)
Погода в Либерии (Коста-Рика) (99 км)
Погода в Хинотеге (Никарагуа) (185 км)
Погода в Чинандеге (Никарагуа) (195 км)
Погода в Блуфилдсе (Никарагуа) (233 км)
Погода в Сан-Хосе (Коста-Рика) (239 км)
Погода в Сан-Хосе аэропорту (Коста-Рика) (246 км)
Погода в Чолутеке (Гондурас) (255 км)
Погода в Амапале (Гондурас) (285 км)

Пояснения к столбцам:

Ветер - указаны скорость ветра в м/с - средняя за 10 мин, порывы в срок и между сроками (в фигурных скобках) и направление, откуда дует ветер: С - северный, СВ - северо-восточный, В - восточный, ЮВ - юго-восточный, Ю - южный, ЮЗ - юго-западный, З - западный, СЗ - северо-западный.
Видимость - горизонтальная дальность видимости в метрах или километрах. При видимости от 1 до 10 км при отсутствии осадков обычно наблюдается дымка, при ухудшении видимости до 1 км и менее - туман. В сухую погоду видимость может ухудшаться дымом, пылью или мглою.
Явления - указаны атмосферные явления, наблюдавшиеся в срок или в последний час перед сроком; фигурными скобками обозначены явления, наблюдавшиеся между сроками (за 1-3 часа до срока); квадратными скобками обозначены град или гололедные отложения с указанием их диаметра в мм.
Облачность - указаны через наклонную черту общая и нижняя облачность в баллах и высота нижней границы облаков в метрах; квадратными скобками обозначены формы облаков: Ci - перистые, Cs - перисто-слоистые, Cc - перисто-кучевые, Ac - высококучевые, As - высокослоистые, Sc - слоисто-кучевые, Ns - слоисто-дождевые, Cu - кучевые, Cb - кучево-дождевые. Подробнее классификацию облаков см. в Атласе облаков (PDF).
T - Температура воздуха - температура, измеренная на высоте 2 м над землей.
Td - Температура точки росы - температура, при понижении до которой содержащийся в воздухе водяной пар достигнет насыщения.
f - Относительная влажность воздуха - влажноcть воздуха, измеренная на высоте 2 м над землей.
Te - Эффективная температура - температура, которую ощущает одетый по сезону человек в тени. Характеристика душности погоды. При расчете учитывается влияние влажности воздуха и скорости ветра на теплоощущения человека.
Tes - Эффективная температура на солнце - температура, которую ощущает человек, с поправкой на солнечный нагрев. Характеристика знойности погоды. Зависит от высоты солнца над горизонтом, облачности и скорости ветра. Ночью, в пасмурную погоду, а также при ветре 12 м/с и более поправка равна нулю.
P - Атмосферное давление - приведенное к уровню моря атмосферное давление.
Po - Атмосферное давление - измеренное на уровне метеостанции атмосферное давление.
Tmin - Минимальная температура - минимум температуры воздуха на высоте 2 м над землей.
Tmax - Максимальная температура - максимум температуры воздуха на высоте 2 м над землей.
R - Количество осадков - Количество выпавших осадков за период времени, мм. При наведении курсора мыши на число - период времени, за который выпало указанное количество осадков.
R24 - Количество осадков - Количество выпавших осадков за 24 часа, мм.
S - Снежный покров - Высота снежного покрова, см. При наведении курсора мыши на число - состояние снежного покрова и степень покрытия местности в баллах.